Content
SEND FEEDBACK

Daily
Averages
Monthly
Summary
United States of America

SOUTHPORT, NORTH CAROLINA


Home > North America > United States > North Carolina
Elevation: 38 feet     Latitude: 34 00N     Longitude: 078 01W

WEATHER
 
SELECT A DAY
Number of Records: 136,238;   Date Range: 8/21/01 - 7/23/14
 
SHARE

PRINT THIS DATA

[ ← Previous Day ]
WEATHER ALMANAC - SEPTEMBER 28, 2013
[ Next Day → ]
[ °C ]   °F
Weather ElementAverageHighLow
Temperature69.2 °F78.1 °F (3:35 pm)63 °F (1:15 am)
Dewpoint57.6 °F60.4 °F (8:35 pm)55.4 °F (12:35 am)
Humidity67.6 %81 % (6:55 am)50 % (3:35 pm)
Barometer30.11 in30.15 in (10:15 am)30.08 in (3:15 am)
Wind Speed8.8 mph15 mph (1:35 pm)
Wind Gust20.7 mph (10:35 am)
Weather ElementAverage
Visibility10 mi
Wind DirectionNNE (26.6 °)

Weather ElementTotal
Precipitation---
Cooling Degree Days5.6 (Base 65)
Growing Degree Days20.6 (Base 50)
Averaged from 71 records on September 28, 2013
WEATHER CONDITIONS BREAKOUT
WIND DIRECTION BREAKOUT
WEATHER BY HOUR - SEPTEMBER 28, 2013
[ °C ]   °F
Local TimeTemperatureDewpointHumidityBarometerVisibilityWind DirectionWind SpeedGust SpeedPrecipitationEventsConditions
12:35 AM63.1 °F55.4 °F76 %30.11 in10.0 miNorth (10°)9.2 mphMostly Cloudy
12:55 AM63.5 °F55.6 °F75 %30.11 in10.0 miNorth (10°)9.2 mphScattered Clouds
1:15 AM63.0 °F55.4 °F76 %30.11 in10.0 miNNE (20°)9.2 mphScattered Clouds
1:35 AM63.7 °F55.8 °F75 %30.11 in10.0 miNorth (10°)6.9 mphMostly Cloudy
1:55 AM64.0 °F55.8 °F74 %30.10 in10.0 miNorth (10°)8.1 mphOvercast
2:15 AM64.0 °F55.6 °F74 %30.10 in10.0 miNNE (20°)11.5 mphMostly Cloudy
2:35 AM64.4 °F55.6 °F73 %30.10 in10.0 miNNE (20°)10.4 mphMostly Cloudy
2:55 AM64.0 °F55.8 °F74 %30.09 in10.0 miNorth (10°)10.4 mph18.4 mphMostly Cloudy
3:15 AM63.9 °F55.8 °F75 %30.08 in10.0 miNorth (10°)11.5 mphMostly Cloudy
3:35 AM63.7 °F55.9 °F76 %30.08 in10.0 miNorth (10°)8.1 mphMostly Cloudy
3:55 AM63.5 °F56.3 °F77 %30.08 in10.0 miNNE (20°)8.1 mphScattered Clouds
4:15 AM63.5 °F56.5 °F78 %30.08 in10.0 miNorth (10°)10.4 mphScattered Clouds
4:35 AM63.5 °F56.8 °F79 %30.08 in10.0 miNorth (10°)9.2 mphMostly Cloudy
4:55 AM63.5 °F56.7 °F78 %30.08 in10.0 miNNE (30°)9.2 mph16.1 mphScattered Clouds
5:15 AM63.5 °F56.8 °F79 %30.08 in10.0 miNNE (20°)9.2 mph16.1 mphScattered Clouds
5:35 AM63.5 °F57.2 °F80 %30.08 in10.0 miNNE (20°)9.2 mphScattered Clouds
5:55 AM63.5 °F57.2 °F80 %30.09 in10.0 miNorth (10°)8.1 mphScattered Clouds
6:15 AM63.5 °F57.2 °F80 %30.10 in10.0 miNNE (20°)10.4 mphMostly Cloudy
6:35 AM63.5 °F57.2 °F80 %30.10 in10.0 miNNE (30°)6.9 mphScattered Clouds
6:55 AM63.0 °F57.2 °F81 %30.11 in10.0 miNNE (20°)9.2 mphScattered Clouds
7:15 AM63.5 °F57.6 °F81 %30.11 in10.0 miNorth (10°)10.4 mphMostly Cloudy
7:35 AM63.5 °F57.4 °F80 %30.12 in10.0 miNorth (10°)11.5 mphScattered Clouds
7:55 AM63.5 °F57.6 °F81 %30.13 in10.0 miNorth (10°)9.2 mphScattered Clouds
8:15 AM63.7 °F57.6 °F80 %30.13 in10.0 miNNE (20°)11.5 mphScattered Clouds
8:35 AM64.4 °F57.7 °F79 %30.13 in10.0 miNNE (20°)11.5 mphScattered Clouds
8:55 AM66.0 °F58.1 °F76 %30.13 in10.0 miNNE (30°)10.4 mph16.1 mphScattered Clouds
9:15 AM66.7 °F57.9 °F73 %30.14 in10.0 miNNE (20°)10.4 mph19.6 mphClear
9:35 AM67.5 °F57.7 °F71 %30.14 in10.0 miNNE (30°)11.5 mphClear
9:55 AM68.7 °F58.1 °F69 %30.14 in10.0 miNNE (20°)10.4 mphClear
10:15 AM70.2 °F58.1 °F65 %30.15 in10.0 miNE (50°)11.5 mph17.3 mphClear
10:35 AM71.1 °F58.1 °F63 %30.15 in10.0 miNNE (30°)13.8 mph20.7 mphClear
10:55 AM73.2 °F58.6 °F60 %30.15 in10.0 miNorth (10°)11.5 mph17.3 mphClear
11:15 AM73.2 °F57.7 °F58 %30.15 in10.0 miNNE (30°)11.5 mph20.7 mphClear
11:35 AM74.8 °F58.3 °F56 %30.15 in10.0 miNNE (20°)8.1 mph18.4 mphClear
11:55 AM76.1 °F57.9 °F53 %30.15 in10.0 miNE (50°)10.4 mph19.6 mphClear
12:15 PM76.6 °F57.6 °F52 %30.15 in10.0 miNNE (30°)11.5 mphClear
12:35 PM76.3 °F57.0 °F51 %30.15 in10.0 miENE (60°)10.4 mph16.1 mphClear
12:55 PM77.2 °F57.6 °F51 %30.15 in10.0 miNorth (10°)12.7 mph18.4 mphClear
1:15 PM77.0 °F57.7 °F51 %30.14 in10.0 miNE (40°)10.4 mph17.3 mphClear
1:35 PM77.2 °F57.9 °F51 %30.13 in10.0 miNNE (20°)15.0 mphScattered Clouds
1:55 PM77.9 °F58.5 °F51 %30.13 in10.0 miNorth (10°)13.8 mph20.7 mphScattered Clouds
2:15 PM76.5 °F58.3 °F53 %30.12 in10.0 miNNE (30°)13.8 mph18.4 mphMostly Cloudy
2:35 PM77.7 °F58.6 °F52 %30.11 in10.0 miNNE (20°)12.7 mphScattered Clouds
2:55 PM77.5 °F58.1 °F51 %30.11 in10.0 miNNE (20°)11.5 mph19.6 mphScattered Clouds
3:15 PM77.2 °F58.1 °F52 %30.10 in10.0 miNorth (10°)12.7 mphScattered Clouds
3:35 PM78.1 °F57.9 °F50 %30.10 in10.0 miNorth (10°)9.2 mphScattered Clouds
3:55 PM78.1 °F57.9 °F50 %30.10 in10.0 miNNE (30°)9.2 mphScattered Clouds
4:15 PM77.4 °F58.3 °F52 %30.10 in10.0 miNNE (30°)9.2 mph16.1 mphScattered Clouds
4:35 PM77.2 °F58.3 °F52 %30.10 in10.0 miNE (40°)9.2 mphMostly Cloudy
4:55 PM74.7 °F57.2 °F54 %30.10 in10.0 miNE (40°)6.9 mphMostly Cloudy
5:15 PM77.2 °F58.1 °F52 %30.10 in10.0 miENE (60°)11.5 mph18.4 mphScattered Clouds
5:35 PM74.3 °F57.2 °F55 %30.10 in10.0 miNNE (20°)5.8 mphScattered Clouds
5:55 PM76.1 °F57.0 °F51 %30.10 in10.0 miNE (40°)9.2 mphScattered Clouds
6:15 PM75.2 °F57.6 °F54 %30.10 in10.0 miNNE (30°)5.8 mphScattered Clouds
6:35 PM74.3 °F56.7 °F54 %30.11 in10.0 miNNE (30°)5.8 mphClear
6:55 PM72.5 °F57.4 °F59 %30.11 in10.0 miNE (50°)3.5 mphScattered Clouds
7:15 PM71.8 °F59.2 °F64 %30.11 in10.0 miNE (40°)4.6 mphScattered Clouds
7:35 PM70.9 °F59.9 °F68 %30.11 in10.0 miNNE (20°)3.5 mphScattered Clouds
7:55 PM69.3 °F59.7 °F72 %30.11 in10.0 miCalmClear
8:15 PM68.9 °F59.9 °F73 %30.11 in10.0 miCalmScattered Clouds
8:35 PM68.9 °F60.4 °F74 %30.11 in10.0 miNorth (10°)3.5 mphScattered Clouds
8:55 PM68.0 °F60.3 °F76 %30.11 in10.0 miNorth (350°)4.6 mphScattered Clouds
9:15 PM67.1 °F59.2 °F76 %30.12 in10.0 miNorth (10°)4.6 mphClear
9:35 PM66.2 °F58.5 °F76 %30.12 in10.0 miNorth (10°)4.6 mphClear
9:55 PM66.2 °F57.7 °F74 %30.12 in10.0 miNNE (20°)4.6 mphClear
10:15 PM65.5 °F57.6 °F76 %30.12 in10.0 miNNE (20°)4.6 mphClear
10:35 PM65.3 °F57.6 °F76 %30.12 in10.0 miNNE (20°)6.9 mphClear
10:55 PM65.3 °F57.6 °F76 %30.12 in10.0 miNNE (20°)5.8 mphClear
11:15 PM65.3 °F58.3 °F78 %30.11 in10.0 miNNE (20°)6.9 mphClear
11:35 PM64.4 °F58.1 °F80 %30.11 in10.0 miNNE (20°)6.9 mphClear
11:55 PM63.7 °F57.9 °F81 %30.11 in10.0 miNNE (20°)5.8 mphClear
Hourly data recorded from KSUT, located miles away from Southport, North Carolina







STORIES FROM OUR PARTNERS